Tracking 22879 objects as of 21-Apr-2021
HD Live streaming from Space Station
objects crossing your sky now

STARLINK-2280

Track STARLINK-2280 now!
10-day predictions
STARLINK-2280 is classified as:


NORAD ID: 47861
Int'l Code: 2021-021B
Perigee: 355.7 km
Apogee: 357.4 km
Inclination: 53.1 °
Period: 91.5 minutes
Semi major axis: 6727 km
RCS: Unknown
Launch date: March 14, 2021
Source: United States (US)
Launch site: AIR FORCE EASTERN TEST RANGE (AFETR)
aabbcc
Your satellite tracking list
Your tracking list is empty




NASA's NSSDC Master Catalog

Two Line Element Set (TLE):
1 47861U 21021B   21110.91667824 -.00117600  00000-0 -84123-3 0  9998
2 47861  53.0513  31.5402 0001256  75.5523 249.7030 15.73306511  1762
Source of the keplerian elements: AFSPC